Weather History for KSLK - January, 2014

Change the Weather History Date:

Sunday, January 26, 2014

  Actual Average Record
Temperature  
Mean Temperature 1 °F 13 °F  
Max Temperature 13 °F 25 °F - ()
Min Temperature -11 °F 1 °F - ()
Degree Days  
Heating Degree Days 64 52  
Month to date heating degree days 1392 1343  
Since 1 July heating degree days 5230 5042  
Cooling Degree Days 0 0  
Month to date cooling degree days 0  
Year to date cooling degree days 0  
Moisture  
Dew Point -9 °F    
Average Humidity 71    
Maximum Humidity 86    
Minimum Humidity 56    
Precipitation  
Precipitation T in 0.08 in - ()
Month to date precipitation 1.55 1.76  
Year to date precipitation 1.55 1.76  
Sea Level Pressure  
Sea Level Pressure 29.54 in    
Wind  
Wind Speed 9 mph (WSW)    
Max Wind Speed 21 mph    
Max Gust Speed 30 mph    
Visibility 8 miles    
Events Snow    
T = Trace of Precipitation, MM = Missing Value Source: NWS Daily Summary

Daily Weather History Graph

Daily Weather History Graph

Search for Another Location

Airport or City:

Trip Planner

Search our weather history database for the weather conditions in past years. The results will help you decide how hot, cold, wet, or windy it might be!

Date:

Astronomy

Jan. 26, 2014 Rise Set
Actual Time 7:21 AM EST 4:57 PM EST
Civil Twilight 6:49 AM EST 5:29 PM EST
Nautical Twilight 6:14 AM EST 6:04 PM EST
Astronomical Twilight 5:40 AM EST 6:38 PM EST
Moon 2:56 AM EST (1/26) 12:43 PM EST (1/26)
Length of Visible Light 10h 39m
Length of Day
9h 36m
Waning Crescent, 24% of the Moon is Illuminated
Jan 26
Waning Crescent
Jan 30
New
Feb 6
First Quarter
Feb 14
Full
Feb 22
Last Quarter

Hourly Weather History & Observations

Time (EST) Temp. Windchill Dew Point Humidity Pressure Visibility Wind Dir Wind Speed Gust Speed Precip Events Conditions
12:12 AM 6.1 °F -9.5 °F -2.9 °F 67% 29.27 in 10.0 mi WSW 11.5 mph 17.3 mph N/A   Overcast
12:51 AM 3.0 °F -13.3 °F -5.1 °F 69% 29.38 in 10.0 mi WSW 11.5 mph 25.3 mph N/A   Overcast
1:24 AM 1.9 °F -15.5 °F -5.1 °F 72% 29.30 in 1.5 mi West 12.7 mph 27.6 mph 0.00 in Snow Light Snow
1:31 AM -0.0 °F -17.1 °F -6.0 °F 76% 29.31 in 0.8 mi WNW 11.5 mph 25.3 mph 0.00 in Snow Light Snow
1:40 AM -2.0 °F -17.7 °F -7.1 °F 79% 29.32 in 1.0 mi WNW 9.2 mph 18.4 mph 0.00 in Snow Light Snow
1:51 AM -2.9 °F -17.7 °F -8.0 °F 79% 29.43 in 1.2 mi WNW 8.1 mph 17.3 mph 0.00 in Snow Light Snow
2:19 AM -5.1 °F -21.5 °F -9.9 °F 80% 29.35 in 2.5 mi West 9.2 mph - 0.00 in   Haze
2:26 AM -5.1 °F -20.4 °F -11.0 °F 76% 29.36 in 4.0 mi West 8.1 mph - 0.00 in   Haze
2:48 AM -5.8 °F -21.2 °F -11.2 °F 77% 29.37 in 10.0 mi West 8.1 mph - 0.00 in   Scattered Clouds
2:51 AM -6.0 °F -23.6 °F -11.9 °F 75% 29.48 in 10.0 mi West 10.4 mph 19.6 mph 0.00 in   Partly Cloudy
3:29 AM -7.1 °F -21.4 °F -13.0 °F 75% 29.40 in 5.0 mi Variable 6.9 mph 16.1 mph N/A   Haze
3:51 AM -8.0 °F -21.0 °F -13.0 °F 79% 29.53 in 5.0 mi West 5.8 mph - N/A   Haze
4:51 AM -9.0 °F -26.4 °F -14.1 °F 79% 29.56 in 7.0 mi WSW 9.2 mph - N/A   Mostly Cloudy
5:13 AM -9.0 °F -23.8 °F -15.0 °F 75% 29.45 in 9.0 mi WSW 6.9 mph - N/A   Scattered Clouds
5:47 AM -9.4 °F -24.3 °F -14.8 °F 77% 29.47 in 10.0 mi WSW 6.9 mph - N/A   Mostly Cloudy
5:51 AM -9.9 °F -23.4 °F -15.0 °F 78% 29.58 in 8.0 mi West 5.8 mph - N/A   Mostly Cloudy
6:46 AM -9.4 °F -22.7 °F -14.8 °F 77% 29.50 in 10.0 mi WSW 5.8 mph - N/A   Scattered Clouds
6:51 AM -11.0 °F -22.8 °F -15.0 °F 83% 29.62 in 9.0 mi WSW 4.6 mph - N/A   Scattered Clouds
7:02 AM -9.9 °F -21.5 °F -15.0 °F 78% 29.51 in 6.0 mi WSW 4.6 mph - N/A   Haze
7:34 AM -11.0 °F -24.6 °F -15.0 °F 83% 29.52 in 6.0 mi WSW 5.8 mph - N/A   Scattered Clouds
7:51 AM -11.0 °F -27.6 °F -16.1 °F 78% 29.64 in 10.0 mi SW 8.1 mph - N/A   Clear
8:51 AM -9.0 °F -28.4 °F -15.0 °F 75% 29.67 in 10.0 mi SW 11.5 mph - N/A   Clear
9:51 AM -6.0 °F -24.6 °F -15.0 °F 65% 29.68 in 10.0 mi SW 11.5 mph - N/A   Mostly Cloudy
10:51 AM -2.0 °F -19.6 °F -14.1 °F 57% 29.69 in 10.0 mi SW 11.5 mph - N/A   Overcast
11:51 AM 1.0 °F -14.9 °F -9.9 °F 60% 29.69 in 4.0 mi WSW 10.4 mph 20.7 mph N/A   Haze
11:58 AM 1.0 °F -15.8 °F -9.0 °F 63% 29.57 in 3.0 mi WSW 11.5 mph 19.6 mph N/A   Haze
12:51 PM 3.0 °F -13.3 °F -9.0 °F 57% 29.66 in 10.0 mi WSW 11.5 mph - N/A   Mostly Cloudy
1:09 PM 3.0 °F -10.5 °F -8.0 °F 60% 29.55 in 10.0 mi WSW 8.1 mph 17.3 mph N/A   Scattered Clouds
1:51 PM 3.9 °F -12.2 °F -8.0 °F 58% 29.68 in 10.0 mi SW 11.5 mph - N/A   Mostly Cloudy
2:51 PM 3.9 °F -10.4 °F -7.1 °F 60% 29.66 in 10.0 mi SW 9.2 mph - N/A   Partly Cloudy
3:51 PM 6.1 °F -6.8 °F -5.1 °F 60% 29.67 in 10.0 mi SW 8.1 mph - N/A   Overcast
4:51 PM 6.1 °F -7.8 °F -4.0 °F 63% 29.68 in 10.0 mi SSW 9.2 mph - N/A   Mostly Cloudy
5:51 PM 7.0 °F -9.1 °F -5.1 °F 58% 29.67 in 10.0 mi SSW 12.7 mph - N/A   Mostly Cloudy
6:51 PM 7.0 °F -6.6 °F -4.0 °F 61% 29.68 in 10.0 mi SSW 9.2 mph - N/A   Overcast
7:51 PM 8.1 °F -3.2 °F -4.0 °F 58% 29.66 in 10.0 mi SSE 6.9 mph - N/A   Overcast
8:51 PM 8.1 °F - -0.9 °F 67% 29.66 in - North - - 0.00 in   Unknown
9:51 PM 9.0 °F -3.2 °F 1.0 °F 70% 29.64 in 10.0 mi SSW 8.1 mph - N/A   Overcast
10:51 PM 10.0 °F 1.8 °F 1.9 °F 70% 29.61 in 10.0 mi WSW 4.6 mph - N/A   Overcast
11:51 PM 12.9 °F -3.4 °F 5.0 °F 71% 29.58 in 10.0 mi SSW 16.1 mph 21.9 mph N/A   Overcast